Weather reports worldwide

Advertisment
Alajar, Spain (8380): temperature & dewpoint: 12.01.2020 13:00:00 - 18.01.2020 13:00:00 (CET)Alajar, Spain (8380): wind speed & gusts: 12.01.2020 13:00:00 - 18.01.2020 13:00:00 (CET)Alajar, Spain (8380): wind direction: 12.01.2020 13:00:00 - 18.01.2020 13:00:00 (CET)Alajar, Spain (8380): reduced air pressure: 12.01.2020 13:00:00 - 18.01.2020 13:00:00 (CET)Alajar, Spain (8380): visibility: 12.01.2020 13:00:00 - 18.01.2020 13:00:00 (CET)Alajar, Spain (8380): sunshine duration: 12.01.2020 13:00:00 - 18.01.2020 13:00:00 (CET)Alajar, Spain (8380): precipitation: 12.01.2020 13:00:00 - 18.01.2020 13:00:00 (CET)
Date & Time tt [°C] td [°C] ff [km/h] ff [kn] fx [km/h] fx [kn] dd ppp [hPa] vv [km] sd [min] rr [mm]
18.01.2020 13:00:00 - - - - - - - - - - -
18.01.2020 12:00:00 10,7 10,6 4 2 9 5 SW 1030,6 4,7 0 5,4
18.01.2020 11:00:00 10,3 10,3 4 2 11 6 WSW 1030,6 3,0 0 4,0
18.01.2020 10:00:00 9,9 9,9 4 2 9 5 W 1030,3 1,9 0 7,2
18.01.2020 09:00:00 9,7 9,7 2 1 14 7 E 1030,8 1,0 0 4,8
18.01.2020 08:00:00 9,7 9,7 4 2 11 6 SW 1030,1 4,0 0 0,2
18.01.2020 07:00:00 10,0 10,0 5 3 10 5 SW 1030,3 5 0 -
18.01.2020 06:00:00 10,0 9,4 6 3 11 6 SW 1030,2 11 0 0,0
18.01.2020 05:00:00 9,6 8,3 6 3 13 7 SW 1030,2 20 0 0,0
18.01.2020 04:00:00 9,5 7,3 4 2 8 5 SSE 1031,0 20 0 0,0
18.01.2020 03:00:00 9,5 7,4 3 2 8 4 NE 1031,5 20 0 0,0
18.01.2020 02:00:00 9,2 9,2 7 4 9 5 NE 1031,8 20 0 0,0
18.01.2020 01:00:00 9,5 9,2 6 4 9 5 ENE 1032,5 20 0 -
18.01.2020 00:00:00 9,1 9,0 7 4 10 5 ENE 1032,5 20 0 0,0
17.01.2020 23:00:00 8,5 8,5 4 2 10 6 NE 1033,1 20 0 0,0
17.01.2020 22:00:00 9,1 9,0 4 2 10 6 NNE 1032,8 20 0 0,0
17.01.2020 21:00:00 9,2 8,7 2 1 11 6 WNW 1033,1 20 0 0,0
17.01.2020 20:00:00 9,8 7,8 5 3 8 5 NE 1032,7 20 0 0,0
17.01.2020 19:00:00 11,1 7,3 2 1 11 6 NNE 1031,9 20 0 -
17.01.2020 18:00:00 13,7 5,8 4 2 13 7 NNE 1030,9 20 49 0,0
17.01.2020 17:00:00 14,4 7,0 7 4 17 9 N 1030,6 20 60 0,0
17.01.2020 16:00:00 14,4 6,7 9 5 18 10 NNE 1030,2 20 60 0,0
17.01.2020 15:00:00 14,6 5,5 10 6 21 11 NNE 1030,6 20 60 0,0
17.01.2020 14:00:00 14,5 5,8 9 5 18 10 NNE 1031,1 20 60 0,0
17.01.2020 13:00:00 14,3 8,5 6 4 20 11 ENE 1031,9 20 60 -
17.01.2020 12:00:00 12,7 6,7 6 4 20 11 NNE 1033,0 20 29 0,0
17.01.2020 11:00:00 10,7 10,6 4 2 6 3 SSW 1032,9 20 31 0,2
17.01.2020 10:00:00 8,1 8,1 1 1 6 3 W 1033,1 20 45 0,0
17.01.2020 09:00:00 6,8 6,8 1 1 9 5 E 1032,9 20 0 0,0
17.01.2020 08:00:00 7,4 7,4 5 3 11 6 NE 1032,1 20 0 0,0
17.01.2020 07:00:00 8,5 8,5 3 2 10 5 SSE 1031,1 20 0 -
17.01.2020 06:00:00 9,6 9,6 5 3 10 6 N 1029,9 18 0 0,0
17.01.2020 05:00:00 10,4 10,4 3 2 10 5 SW 1029,5 12 0 0,0
17.01.2020 04:00:00 10,8 10,8 4 2 20 11 W 1029,3 3,6 0 0,8
17.01.2020 03:00:00 10,7 10,6 8 4 26 14 WSW 1029,2 0,4 0 1,6
17.01.2020 02:00:00 10,8 10,8 9 5 27 15 WSW 1029,2 1,9 0 1,0
17.01.2020 01:00:00 10,8 10,8 12 7 27 15 SW 1029,2 10 0 -
17.01.2020 00:00:00 10,9 10,9 11 6 29 16 WSW 1029,4 6 0 0,0
16.01.2020 23:00:00 10,8 10,8 15 8 35 19 SW 1028,9 8 0 0,0
16.01.2020 22:00:00 10,6 10,6 13 7 31 17 SW 1028,7 14 0 0,0
16.01.2020 21:00:00 10,5 10,5 11 6 22 12 WSW 1028,4 19 0 0,0
16.01.2020 20:00:00 10,3 8,4 12 7 26 14 WSW 1028,3 20 0 0,0
16.01.2020 19:00:00 10,7 4,8 11 6 24 13 SW 1027,7 20 0 -
16.01.2020 18:00:00 12,0 2,1 16 9 28 15 SW 1026,9 20 16 0,0
16.01.2020 17:00:00 13,7 2,3 15 8 30 16 WSW 1026,0 20 60 0,0
16.01.2020 16:00:00 14,5 3,9 21 12 32 17 SSW 1025,7 20 60 0,0
16.01.2020 15:00:00 14,7 5,5 18 10 31 17 SSW 1025,9 20 60 0,0
16.01.2020 14:00:00 14,6 8,5 12 7 28 15 SSW 1026,6 20 60 0,0
16.01.2020 13:00:00 13,7 8,1 13 7 22 12 SW 1027,6 20 60 -
16.01.2020 12:00:00 12,2 9,2 9 5 16 9 SSE 1028,3 20 32 0,0
16.01.2020 11:00:00 9,8 9,8 5 3 18 10 S 1028,6 18 6 0,0
16.01.2020 10:00:00 9,2 9,2 6 3 13 7 SSE 1028,4 9 0 0,0
16.01.2020 09:00:00 8,9 8,9 7 4 18 10 SE 1028,0 7 0 0,0
16.01.2020 08:00:00 9,1 9,0 8 4 13 7 S 1027,4 5 0 0,0
16.01.2020 07:00:00 9,3 9,3 6 3 13 7 SSE 1027,2 3,8 0 -
16.01.2020 06:00:00 9,6 9,6 8 4 14 8 SSE 1026,9 3,8 0 0,0
16.01.2020 05:00:00 9,8 9,8 7 4 19 10 S 1027,0 1,1 0 0,0
16.01.2020 04:00:00 10,2 10,2 9 5 20 11 SSE 1027,0 0,4 0 0,0
16.01.2020 03:00:00 10,3 10,3 7 4 19 10 S 1027,2 0,6 0 0,0
16.01.2020 02:00:00 10,5 10,5 5 3 16 9 S - - 0 0,0
16.01.2020 01:00:00 10,8 10,8 6 3 21 11 S - - 0 -
16.01.2020 00:00:00 11,0 11,0 12 6 26 14 SSW - - 0 0,0
15.01.2020 23:00:00 11,1 11,1 12 7 22 12 SSW - - 0 0,2
15.01.2020 22:00:00 11,2 11,2 8 5 27 15 S 1026,8 0,6 0 0,6
15.01.2020 21:00:00 11,0 11,0 6 3 14 7 SW - - 0 1,0
15.01.2020 20:00:00 10,5 10,5 4 2 11 6 SSE 1026,7 2,4 0 1,2
15.01.2020 19:00:00 10,3 10,3 4 2 12 6 SSE 1026,4 0,6 0 -
15.01.2020 18:00:00 10,4 10,4 4 2 22 12 SSE 1026,1 1,6 0 3,8
15.01.2020 17:00:00 10,4 10,4 8 4 16 9 SSE 1025,8 0,8 0 4,4
15.01.2020 16:00:00 10,6 10,6 6 4 14 8 SSW 1025,2 4,1 0 3,0
15.01.2020 15:00:00 10,3 10,3 10 5 17 9 SSE 1025,1 2,2 0 0,4
15.01.2020 14:00:00 9,7 9,7 3 2 21 11 NW 1025,6 1,2 0 0,6
15.01.2020 13:00:00 9,6 9,6 8 4 18 10 SSE 1026,0 1,2 0 -
15.01.2020 12:00:00 9,6 9,6 6 4 19 10 S 1026,5 1,8 0 0,0
15.01.2020 11:00:00 9,1 9,0 6 3 24 13 SSW 1026,1 0,3 0 0,0
15.01.2020 10:00:00 8,7 8,7 7 4 20 11 SSW 1025,4 0,2 0 0,0
15.01.2020 09:00:00 8,0 8,0 5 3 20 11 W 1025,2 4,2 0 0,0
15.01.2020 08:00:00 7,7 7,7 6 4 13 7 ESE 1025,0 13 0 0,0
15.01.2020 07:00:00 7,6 7,3 3 2 9 5 E 1024,6 19 0 -
15.01.2020 06:00:00 7,5 7,1 4 2 12 7 SSE 1024,2 20 0 0,0
15.01.2020 05:00:00 7,3 7,3 2 1 8 4 ESE 1024,2 20 0 0,0
15.01.2020 04:00:00 6,8 6,8 6 3 11 6 E 1024,4 20 0 0,0
15.01.2020 03:00:00 6,9 6,8 4 2 8 4 E 1024,7 20 0 0,0
15.01.2020 02:00:00 7,7 7,7 5 3 9 5 E 1024,6 20 0 0,0
15.01.2020 01:00:00 7,7 7,7 5 3 9 5 ESE 1025,0 20 0 -
15.01.2020 00:00:00 8,4 7,4 5 3 16 8 ESE 1024,5 20 0 0,0
14.01.2020 23:00:00 8,5 7,4 5 3 11 6 SSE 1024,7 20 0 0,0
14.01.2020 22:00:00 8,9 7,1 4 2 17 9 S 1024,5 20 0 0,0
14.01.2020 21:00:00 9,0 7,0 7 4 19 11 S 1024,4 20 0 0,0
14.01.2020 20:00:00 9,0 6,5 4 2 14 8 SSW 1024,0 20 0 0,0
14.01.2020 19:00:00 8,9 5,6 4 2 8 5 SSE 1024,0 20 0 -
14.01.2020 18:00:00 9,1 4,6 6 3 17 9 SSW 1023,6 20 0 0,0
14.01.2020 17:00:00 9,5 5,0 9 5 18 10 SSW 1023,2 20 0 0,0
14.01.2020 16:00:00 9,8 4,3 12 7 18 10 SW 1023,0 20 0 0,0
14.01.2020 15:00:00 10,2 5,0 11 6 22 12 SW 1022,8 20 0 0,0
14.01.2020 14:00:00 10,0 4,3 6 4 16 9 SW 1023,5 20 3 0,0
14.01.2020 13:00:00 11,0 3,9 9 5 16 8 SSW 1024,1 20 52 -
14.01.2020 12:00:00 - - - - - - - - - - -
14.01.2020 11:00:00 8,2 3,6 5 3 11 6 SW 1025,5 20 7 0,0
14.01.2020 10:00:00 5,3 3,4 5 3 9 5 NW 1025,5 20 25 0,0
14.01.2020 09:00:00 3,9 2,5 8 4 10 5 NE 1025,1 20 0 0,0
14.01.2020 08:00:00 4,8 2,7 5 3 11 6 NE 1024,5 20 0 0,0
14.01.2020 07:00:00 3,6 2,7 2 1 15 8 ENE 1024,5 20 0 -
14.01.2020 06:00:00 3,5 2,9 3 2 5 3 WNW 1024,7 20 0 0,0
14.01.2020 05:00:00 4,2 3,0 4 2 13 7 NW 1024,7 20 0 0,0
14.01.2020 04:00:00 3,9 3,8 1 1 6 3 W 1024,8 20 0 0,0
14.01.2020 03:00:00 3,8 3,6 2 1 5 3 S 1025,2 20 0 0,0
14.01.2020 02:00:00 3,9 3,2 2 1 6 4 S 1025,5 20 0 0,0
14.01.2020 01:00:00 4,3 3,4 2 1 6 3 N 1026,0 20 0 -
14.01.2020 00:00:00 4,4 3,6 1 1 6 4 W 1026,4 20 0 0,0
13.01.2020 23:00:00 4,5 3,6 3 2 6 3 N 1026,4 20 0 0,0
13.01.2020 22:00:00 5,0 2,9 3 2 8 4 NNE 1026,1 20 0 0,0
13.01.2020 21:00:00 5,0 1,7 2 1 10 5 NE 1026,4 20 0 0,0
13.01.2020 20:00:00 6,3 2,1 7 4 12 6 ENE 1026,1 20 0 0,0
13.01.2020 19:00:00 7,1 2,5 5 3 8 4 NNE 1025,8 20 0 -
13.01.2020 18:00:00 10,3 2,1 6 3 16 8 WSW 1024,9 20 44 0,0
13.01.2020 17:00:00 12,6 1,5 10 5 19 10 WSW 1024,4 20 60 0,0
13.01.2020 16:00:00 13,3 2,5 8 5 19 10 SW 1024,1 20 60 0,0
13.01.2020 15:00:00 13,4 2,9 11 6 24 13 SW 1024,4 20 60 0,0
13.01.2020 14:00:00 12,9 2,5 9 5 21 11 SW 1025,4 20 60 0,0
13.01.2020 13:00:00 11,5 3,8 7 4 16 9 SSW 1026,7 20 60 -
13.01.2020 12:00:00 11,0 3,2 9 5 16 9 SSW 1027,6 20 30 0,0
13.01.2020 11:00:00 8,8 3,6 5 3 10 6 S 1028,1 20 2 0,0
13.01.2020 10:00:00 5,6 3,4 4 2 10 5 ENE 1028,3 20 11 0,0
13.01.2020 09:00:00 4,3 2,9 8 4 10 6 ENE 1028,2 20 0 0,0
13.01.2020 08:00:00 3,8 2,1 5 3 10 5 NE 1028,3 20 0 0,0
13.01.2020 07:00:00 4,0 0,9 5 3 10 5 ENE 1028,0 20 0 -
13.01.2020 06:00:00 4,4 0,9 8 4 11 6 ENE 1028,1 20 0 0,0
13.01.2020 05:00:00 5,0 1,5 9 5 11 6 NE 1028,2 20 0 0,0
13.01.2020 04:00:00 5,5 1,5 8 5 12 6 ENE 1028,5 20 0 0,0
13.01.2020 03:00:00 5,6 1,1 8 4 11 6 ENE 1028,8 20 0 0,0
13.01.2020 02:00:00 5,3 1,3 6 3 11 6 NE 1029,4 20 0 0,0
13.01.2020 01:00:00 6,0 0,4 7 4 11 6 NE 1030,1 20 0 -
13.01.2020 00:00:00 5,3 0,4 4 2 10 5 NNE 1030,6 20 0 0,0
12.01.2020 23:00:00 7,1 0,2 6 3 21 11 NNE 1030,2 20 0 0,0
12.01.2020 22:00:00 8,8 1,3 16 9 30 16 N 1029,7 20 0 0,0
12.01.2020 21:00:00 9,0 1,1 20 11 38 21 N 1029,5 20 0 0,0
12.01.2020 20:00:00 9,3 1,1 18 10 32 17 N 1029,4 20 0 0,0
12.01.2020 19:00:00 9,9 0,2 17 9 26 14 N 1028,9 20 0 -
12.01.2020 18:00:00 11,3 0,0 16 9 28 15 N 1028,6 20 50 0,0
12.01.2020 17:00:00 13,1 1,5 12 7 22 12 N 1028,0 20 60 0,0
12.01.2020 16:00:00 15,8 1,9 4 2 19 10 SW 1027,4 20 60 0,0
12.01.2020 15:00:00 15,5 2,3 9 5 18 10 SW 1027,7 20 60 0,0
12.01.2020 14:00:00 15,0 2,1 8 4 15 8 SW 1028,8 20 60 0,0
12.01.2020 13:00:00 13,9 1,5 6 3 16 9 SSW 1030,1 20 60 -

tt = temperature
td = dewpoint
ff = wind speed
fx = gusts
dd = wind direction
ppp = reduced air pressure
vv = visibility
sd = sunshine duration
rr = precipitation

Next stations